loading
DOY 175 | 2024-06-23T11:00:49Z

STARLINK-31432, 59932

Orbit data source: Space-Track

STARLINK-31432, 59932 is a payload satellite owned by SpaceX/Seattle (US) in LEO that was launched on Sat, 01 Jun 2024 UTC via a Falcon 9 launch vehicle from the Air Force Eastern Test Range (AFETR). Payloads include a variety of satellites, spacecraft, and rockets equipped with specific instruments for various scientific and technological missions. These include communications satellites like Starlink; space stations such as the ISS; scientific satellites like the Hubble; Earth observation satellites from companies like Planet Labs, Umbra, and HawkEye 360; GPS; miniature CubeSats for education and research; and military/defense satellites.

Loading next visibility...
Loading greatness...
STARLINK-31432 details
NORAD ID59932
COSPAR ID
2024-106L
Orbit
LEO
Last TLE update5 hours ago
Origin
Flag of USSpaceX/Seattle (US)
ManufacturerSpaceX/Seattle
BusStarlink V2M
MotorUnknown
Mass750 kg wet, ~700 kg dry
Launch date (UTC)
2024-06-01 (3 weeks ago)
Launch vehicle
Falcon 9
Launch site
Air Force Eastern Test Range (AFETR)
Object type
Payload
Rocket body
Debris
Radar Cross SectionLarge (>1 m²)
Predictive object data (real-time)
Latitude8.79436°
Longitude-63.32223°
Altitude392.731 km
Speed7.677 km/s
Apparent Right ascension16h 50m 02s
Apparent Declination-38° 56' 12"
Sunlit
Object is in full shadow
Predictive observer data (real-time)
Local Sidereal Time22:08:47
Azimuth233.253° WSW
Elevation-17.243°
Doppler factor1
Orbital elements
Apogee394.191 km
Perigee392.26 km
Semi-major axis6,771.363 km
Eccentricity0.0001426
Inclination42.9999°
RAAN290.3243°
Arg. of periapsis267.001°
True anomaly12.60617°
Mean anomaly12.6026°
Mean motion3.89519 °/min
BSTAR-0.024002
Period92.42 mins
Definitive object data (Epoch: 2024-06-23T06:00:00.999Z)
Latitude-42.41756°
Longitude-148.57525°
Altitude403.332 km
Speed7.669 km/s
True Right ascension14h 13m 19s
True Declination-42° 14' 15"
Sunlit
Object was in full shadow at TLE epoch
TLE from 5 hours ago
0 STARLINK-31432
1 59932U 24106L   24175.25001157 -.01703077  00000-0 -24002-1 0  9997
2 59932  42.9999 290.3243 0001426 267.0010  12.6026 15.58756788  4656
Epoch: 2024-06-23T06:00Z
No data available

STARLINK-31432 Visibility forecast

Observer location: 39.9160978°, -105.1181434, 0m alt.

STARLINK-31432 is not visible in the next 10 days
Span
Click to sort rows by Start time (UTC) header in descending order
Start Az.
Max El. time (UTC)
Max El. Az.
Max El.
End time (UTC)
End Az.